This demonstration page uses our WeatherBlox Daily Observations layout. Learn more.

Left ArrowRight Arrow

34.02893, -84.19858

Hourly Observations for December 8, 2018

Temp ( °F °C ) Dew Point ( °F °C ) Humidity (%) Winds ( mph kmh ) Pressure ( in mb ) Visibility ( mi km ) Precip ( " mm )
12:27 am 00:27 Cloudy 44 6.7 41 5 89 89 NNE 6 9 30.39 1029 8 13 0.00 0.00
12:53 am 00:53 Cloudy 44 6.7 41 5 89 89 NNE 3 6 30.39 1029 7 11 0.00 0.00
1:53 am 01:53 Cloudy with Light Rain 44 6.7 41 5 89 89 NNE 3 6 30.38 1029 6 10 0.02 0.51
2:16 am 02:16 Cloudy with Light Rain 43 6.1 41 5 93 93 VRB 3 6 30.39 1029 6 10 0.01 0.25
2:53 am 02:53 Cloudy with Light Rain 43 6.1 41 5 93 93 NE 5 7 30.39 1029 5 8 0.03 0.76
3:12 am 03:12 Cloudy with Light Rain 43 6.1 42 5.6 97 97 Calm 30.39 1029 4 6 0.00 0.03
3:53 am 03:53 Cloudy with Light Rain 42 5.6 40 4.4 92 92 VRB 5 7 30.39 1029 5 8 0.03 0.76
4:53 am 04:53 Cloudy with Light Rain 41 5 40 4.4 96 96 VRB 3 6 30.39 1029 4 6 0.04 1.02
5:16 am 05:16 Cloudy with Light Rain 41 5 40 4.4 96 96 Calm 30.39 1029 4 6 0.02 0.51
5:53 am 05:53 Cloudy with Light Rain 40 4.4 38 3.3 93 93 ENE 7 11 30.39 1029 5 8 0.04 1.02
6:17 am 06:17 Cloudy with Light Rain 39 3.9 37 2.8 93 93 VRB 6 9 30.42 1030 6 10 0.00 0.03
6:23 am 06:23 Cloudy with Light Rain 39 3.9 37 2.8 93 93 VRB 7 11 30.42 1030 7 11 0.01 0.25
6:36 am 06:36 Cloudy with Light Rain 39 3.9 37 2.8 93 93 VRB 5 7 30.42 1030 7 11 0.01 0.25
6:53 am 06:53 Cloudy with Light Rain 39 3.9 36 2.2 89 89 ENE 6 9 30.39 1029 7 11 0.01 0.25
7:48 am 07:48 Cloudy with Light Rain 37 3 37 3 100 100 VRB 3 6 30.42 1030 4 6 0.03 0.76
7:53 am 07:53 Cloudy with Light Rain 39 3.9 37 2.8 93 93 VRB 7 11 30.40 1030 4 6 0.04 1.02
8:05 am 08:05 Cloudy with Light Rain 39 3.9 37 2.8 93 93 E 6 9 30.45 1031 3 5 0.01 0.25
8:53 am 08:53 Cloudy with Rain 39 3.9 38 3.3 96 96 Calm 30.44 1031 3 4 0.08 2.03
9:35 am 09:35 Cloudy with Light Rain 40 4.4 38 3.3 93 93 VRB 7 11 30.48 1032 3 5 0.08 2.03
9:53 am 09:53 Cloudy with Light Rain 40 4.4 38 3.3 93 93 E 6 9 30.45 1031 4 6 0.11 2.79
10:53 am 10:53 Cloudy with Light Rain 40 4.4 38 3.3 93 93 E 6 9 30.45 1031 5 8 0.04 1.02
11:53 am 11:53 Cloudy with Light Rain 40 4.4 38 3.3 93 93 VRB 7 11 30.40 1029 6 10 0.03 0.76
12:53 pm 12:53 Cloudy with Light Rain 40 4.4 38 3.3 93 93 VRB 6 9 30.35 1028 4 6 0.04 1.02
1:53 pm 13:53 Cloudy with Rain 40 4.4 38 3.3 93 93 ENE 8 13 30.33 1027 4 6 0.09 2.29
2:53 pm 14:53 Cloudy with Light Rain 40 4.4 38 3.3 93 93 VRB 7 11 30.33 1027 5 8 0.08 2.03
3:53 pm 15:53 Cloudy with Light Rain 39 3.9 38 3.3 96 96 NE 8 13 30.30 1026 5 8 0.06 1.52
4:53 pm 16:53 Cloudy with Light Rain 39 3.9 37 2.8 93 93 ENE 9 15 30.28 1025 4 6 0.07 1.78
5:13 pm 17:13 Cloudy with Rain 39 3.9 37 2.8 93 93 ENE 7 11 30.27 1025 4 6 0.04 1.02
5:53 pm 17:53 Cloudy with Rain 39 3.9 37 2.8 93 93 ENE 8 13 30.27 1025 4 6 0.13 3.30
6:03 pm 18:03 Cloudy with Rain 39 3.9 37 2.8 93 93 ENE 12 19 30.27 1025 4 6 0.03 0.76
6:48 pm 18:48 Cloudy with Rain 39 4 37 3 93 93 E 9 15 30.24 1024 4 6 0.09 2.29
6:53 pm 18:53 Cloudy with Rain 39 3.9 37 2.8 93 93 ENE 9 15 30.26 1025 4 6 0.11 2.79
7:53 pm 19:53 Cloudy with Rain 38 3.3 36 2.2 93 93 ENE 10 17 30.24 1024 5 8 0.17 4.32
8:16 pm 20:16 Cloudy with Rain 38 3.3 36 2.2 93 93 ENE 9 15 30.24 1024 5 8 0.05 1.27
8:53 pm 20:53 Cloudy with Rain 38 3.3 36 2.2 93 93 VRB 7 11 30.19 1022 5 8 0.14 3.56
9:53 pm 21:53 Cloudy with Light Rain 38 3.3 36 2.2 93 93 E 9 15 30.21 1023 4 6 0.03 0.76
10:22 pm 22:22 Cloudy with Heavy Rain 38 3.3 36 2.2 93 93 ENE 10 17 30.21 1023 3 4 0.09 2.29
10:29 pm 22:29 Cloudy with Rain 38 3.3 36 2.2 93 93 ENE 12 19 30.21 1023 3 5 0.11 2.79
10:38 pm 22:38 Cloudy with Rain 38 3.3 36 2.2 93 93 ENE 12 19 30.18 1022 3 5 0.14 3.56
10:53 pm 22:53 Cloudy with Rain 38 3.3 35 1.7 89 89 E 14 22 30.19 1022 4 6 0.16 4.06
11:07 pm 23:07 Cloudy with Rain 37 2.8 36 2.2 96 96 E 14 22 30.18 1022 4 6 0.04 1.02
11:25 pm 23:25 Cloudy with Light Rain 37 2.8 35 1.7 93 93 ENE 9 15 30.18 1022 5 8 0.06 1.52
11:53 pm 23:53 Cloudy with Light Rain 37 2.8 35 1.7 93 93 ENE 12 19 30.14 1021 4 6 0.09 2.29

Powered by AerisWeather